Content
SEND FEEDBACK

Daily
Averages
Monthly
Summary
United States of America

FAIRPORT, CALIFORNIA


Home > North America > United States > California
Elevation: 4880 feet     Latitude: 42 00N     Longitude: 120 18W

WEATHER
 
SELECT A DAY
Number of Records: 439,911;   Date Range: 1/1/95 - 7/23/14
 
SHARE

PRINT THIS DATA

[ ← Previous Day ]
WEATHER ALMANAC - JANUARY 31, 2013
[ Next Day → ]
[ °C ]   °F
Weather ElementAverageHighLow
Temperature8.6 °F30.2 °F (11:15 am) (12:15 pm)
Dewpoint-13.1 °F (12:15 pm)-27.4 °F (2:35 am)
Humidity14.3 %15 % (2:35 am)13 % (1:55 am)
Barometer30.31 in30.38 in (12:35 am)30.26 in (5:15 pm)
Wind Speed2.1 mph8.1 mph (11:15 pm)
Weather ElementAverage
Visibility8.1 mi
Wind DirectionESE (107.7 °)

Weather ElementTotal
Precipitation---
Heating Degree Days49.9 (Base 65)
Averaged from 65 records on January 31, 2013
WEATHER CONDITIONS BREAKOUT
WIND DIRECTION BREAKOUT
WEATHER BY HOUR - JANUARY 31, 2013
[ °C ]   °F
Local TimeTemperatureDewpointHumidityBarometerVisibilityWind DirectionWind SpeedGust SpeedPrecipitationEventsConditions
12:35 AM15.8 °F-25.6 °F14 %30.38 in10.0 miCalmPartly Cloudy
12:55 AM15.8 °F-25.6 °F14 %30.38 in10.0 miNNW (330°)4.6 mphClear
1:15 AM15.8 °F-25.6 °F14 %30.38 in10.0 miNNW (340°)4.6 mphClear
1:35 AM15.8 °F-25.6 °F14 %30.37 in10.0 miNorth (350°)6.9 mphClear
1:55 AM17.6 °F-25.6 °F13 %30.37 in10.0 miNNW (330°)6.9 mphClear
2:15 AM15.8 °F-25.6 °F14 %30.37 in10.0 miNNW (340°)5.8 mphClear
2:35 AM12.2 °F-27.4 °F15 %30.37 in10.0 miCalmClear
2:55 AM12.2 °F-27.4 °F15 %30.36 in10.0 miNW (310°)3.5 mphMostly Cloudy
3:15 AM14.0 °F-27.4 °F14 %30.36 in10.0 miWNW (300°)4.6 mphOvercast
3:35 AM14.0 °F-27.4 °F14 %30.35 in1.0 miCalmOvercast
4:15 AM12.2 °F-27.4 °F15 %30.35 in10.0 miCalmClear
4:35 AM12.2 °F-27.4 °F15 %30.35 in10.0 miNorth (350°)3.5 mphClear
4:55 AM12.2 °F-27.4 °F15 %30.35 in10.0 miCalmClear
5:15 AM12.2 °F-27.4 °F15 %30.35 in10.0 miCalmScattered Clouds
5:35 AM12.2 °F-27.4 °F15 %30.34 in10.0 miCalmPartly Cloudy
5:55 AM14.0 °F-27.4 °F14 %30.35 in10.0 miCalmScattered Clouds
6:15 AM12.2 °F-27.4 °F15 %30.34 in1.2 miCalmMostly Cloudy
6:35 AM12.2 °F-27.4 °F15 %30.33 in0.8 miCalmOvercast
6:55 AM12.2 °F-27.4 °F15 %30.33 in2.5 miNNW (340°)3.5 mphOvercast
7:15 AM12.2 °F-27.4 °F15 %30.33 in0.8 miNorth (10°)3.5 mphOvercast
7:35 AM12.2 °F-27.4 °F15 %30.33 in0.2 miCalmOvercast
7:55 AM12.2 °F-27.4 °F15 %30.33 in9.0 miCalmScattered Clouds
8:15 AM15.8 °F-27.4 °F13 %30.33 in4.0 miCalmMostly Cloudy
8:35 AM17.6 °F-25.6 °F13 %30.34 in1.5 miCalmOvercast
8:55 AM15.8 °F-25.6 °F14 %30.34 in0.2 miCalmOvercast
9:15 AM19.4 °F-22.0 °F15 %30.34 in0.8 miCalmOvercast
9:35 AM17.6 °F-23.8 °F15 %30.34 in0.2 miCalmOvercast
9:55 AM21.2 °F-22.0 °F14 %30.34 in0.2 miCalmOvercast
10:15 AM21.2 °F-20.2 °F15 %30.34 in0.2 miCalmOvercast
10:35 AM21.2 °F-20.2 °F15 %30.34 in3.0 miCalmScattered Clouds
10:55 AM24.8 °F-20.2 °F13 %30.34 in10.0 miCalmClear
11:15 AM30.2 °F-16.6 °F13 %30.33 in10.0 miCalmClear
11:35 AM26.6 °F-16.6 °F14 %30.32 in10.0 miESE (120°)3.5 mphClear
11:55 AM28.4 °F-16.6 °F13 %30.31 in10.0 miCalmClear
12:15 PM0.0 °F0.0 °F30.30 in10.0 miSouth (190°)3.5 mphClear
12:35 PM0.0 °F0.0 °F30.29 in10.0 miESE (120°)3.5 mphClear
12:55 PM0.0 °F0.0 °F30.29 in10.0 miESE (110°)3.5 mphClear
1:15 PM0.0 °F0.0 °F30.29 in10.0 miCalmClear
1:35 PM0.0 °F0.0 °F30.28 in10.0 miESE (110°)3.5 mphClear
1:55 PM0.0 °F0.0 °F30.27 in10.0 miESE (110°)3.5 mphClear
2:15 PM0.0 °F0.0 °F30.27 in10.0 miESE (110°)3.5 mphClear
2:35 PM0.0 °F0.0 °F30.27 in10.0 miCalmClear
2:55 PM0.0 °F0.0 °F30.27 in10.0 miCalmClear
3:15 PM0.0 °F0.0 °F30.27 in10.0 miCalmClear
3:35 PM0.0 °F0.0 °F30.27 in10.0 miNE (40°)4.6 mphClear
4:15 PM0.0 °F0.0 °F30.27 in10.0 miNorth (10°)3.5 mphClear
4:35 PM0.0 °F0.0 °F30.27 in10.0 miCalmClear
4:55 PM0.0 °F0.0 °F30.27 in10.0 miCalmClear
5:15 PM0.0 °F0.0 °F30.26 in10.0 miCalmClear
5:35 PM0.0 °F0.0 °F30.26 in10.0 miCalmClear
6:15 PM0.0 °F0.0 °F30.27 in10.0 miNorth (10°)4.6 mphClear
6:35 PM0.0 °F0.0 °F30.27 in10.0 miCalmClear
6:55 PM0.0 °F0.0 °F30.27 in10.0 miCalmClear
7:15 PM0.0 °F0.0 °F30.28 in10.0 miCalmClear
7:35 PM0.0 °F0.0 °F30.27 in10.0 miCalmClear
7:55 PM0.0 °F0.0 °F30.27 in10.0 miNW (320°)3.5 mphClear
8:15 PM0.0 °F0.0 °F30.28 in10.0 miNNW (340°)6.9 mphClear
8:35 PM0.0 °F0.0 °F30.27 in10.0 miNorth (350°)6.9 mphClear
9:15 PM0.0 °F0.0 °F30.28 in10.0 miCalmClear
9:35 PM0.0 °F0.0 °F30.28 in10.0 miNorth (360°)3.5 mphClear
10:15 PM0.0 °F0.0 °F30.29 in10.0 miNNW (340°)5.8 mphClear
10:35 PM0.0 °F0.0 °F30.29 in10.0 miNNW (340°)5.8 mphClear
10:55 PM0.0 °F0.0 °F30.29 in10.0 miNNW (340°)4.6 mphClear
11:15 PM0.0 °F0.0 °F30.29 in10.0 miNNW (340°)8.1 mphClear
11:35 PM0.0 °F0.0 °F30.29 in10.0 miNNW (340°)6.9 mphClear
Hourly data recorded from KLKV, located miles away from Fairport, California







STORIES FROM OUR PARTNERS